Year,Month,Day,Hour,Minute,Value (Times are PST for temperature in C)
2011,07,05,00,00,12.90
2011,07,05,00,01,12.90
2011,07,05,00,02,12.90
2011,07,05,00,03,12.90
2011,07,05,00,04,12.90
2011,07,05,00,05,12.80
2011,07,05,00,06,12.80
2011,07,05,00,07,12.80
2011,07,05,00,08,12.80
2011,07,05,00,09,12.80
2011,07,05,00,10,12.80
2011,07,05,00,11,12.80
2011,07,05,00,12,12.80
2011,07,05,00,13,12.80
2011,07,05,00,14,12.80
2011,07,05,00,15,12.80
2011,07,05,00,16,12.70
2011,07,05,00,17,12.70
2011,07,05,00,18,12.70
2011,07,05,00,19,12.70
2011,07,05,00,20,12.70
2011,07,05,00,21,12.60
2011,07,05,00,22,12.60
2011,07,05,00,23,12.60
2011,07,05,00,24,12.60
2011,07,05,00,25,12.60
2011,07,05,00,26,12.60
2011,07,05,00,27,12.60
2011,07,05,00,28,12.60
2011,07,05,00,29,12.60
2011,07,05,00,30,12.60
2011,07,05,00,31,12.60
2011,07,05,00,32,12.60
2011,07,05,00,33,12.50
2011,07,05,00,34,12.50
2011,07,05,00,35,12.50
2011,07,05,00,36,12.40
2011,07,05,00,37,12.40
2011,07,05,00,38,12.40
2011,07,05,00,39,12.30
2011,07,05,00,40,12.30
2011,07,05,00,41,12.30
2011,07,05,00,42,12.30
2011,07,05,00,43,12.30
2011,07,05,00,44,12.30
2011,07,05,00,45,12.30
2011,07,05,00,46,12.30
2011,07,05,00,47,12.20
2011,07,05,00,48,12.20
2011,07,05,00,49,12.10
2011,07,05,00,50,12.10
2011,07,05,00,51,12.10
2011,07,05,00,52,12.10
2011,07,05,00,53,12.00
2011,07,05,00,54,12.00
2011,07,05,00,55,12.10
2011,07,05,00,56,12.10
2011,07,05,00,57,12.10
2011,07,05,00,58,12.00
2011,07,05,00,59,12.00
2011,07,05,01,00,12.00
2011,07,05,01,01,11.90
2011,07,05,01,02,11.90
2011,07,05,01,03,11.90
2011,07,05,01,04,11.90
2011,07,05,01,05,11.90
2011,07,05,01,06,11.90
2011,07,05,01,07,11.90
2011,07,05,01,08,11.90
2011,07,05,01,09,11.90
2011,07,05,01,10,11.90
2011,07,05,01,11,11.80
2011,07,05,01,12,11.90
2011,07,05,01,13,11.90
2011,07,05,01,14,11.90
2011,07,05,01,15,11.90
2011,07,05,01,16,11.90
2011,07,05,01,17,11.90
2011,07,05,01,18,11.90
2011,07,05,01,19,11.90
2011,07,05,01,20,11.90
2011,07,05,01,21,11.90
2011,07,05,01,22,11.90
2011,07,05,01,23,11.90
2011,07,05,01,24,11.90
2011,07,05,01,25,11.90
2011,07,05,01,26,11.80
2011,07,05,01,27,11.80
2011,07,05,01,28,11.80
2011,07,05,01,29,11.80
2011,07,05,01,30,11.80
2011,07,05,01,31,11.80
2011,07,05,01,32,11.80
2011,07,05,01,33,11.80
2011,07,05,01,34,11.80
2011,07,05,01,35,11.80
2011,07,05,01,36,11.80
2011,07,05,01,37,11.80
2011,07,05,01,38,11.80
2011,07,05,01,39,11.80
2011,07,05,01,40,11.80
2011,07,05,01,41,11.70
2011,07,05,01,42,11.70
2011,07,05,01,43,11.70
2011,07,05,01,44,11.70
2011,07,05,01,45,11.70
2011,07,05,01,46,11.70
2011,07,05,01,47,11.70
2011,07,05,01,48,11.70
2011,07,05,01,49,11.70
2011,07,05,01,50,11.70
2011,07,05,01,51,11.60
2011,07,05,01,52,11.60
2011,07,05,01,53,11.60
2011,07,05,01,54,11.60
2011,07,05,01,55,11.60
2011,07,05,01,56,11.60
2011,07,05,01,57,11.60
2011,07,05,01,58,11.60
2011,07,05,01,59,11.60
2011,07,05,02,00,11.60
2011,07,05,02,01,11.50
2011,07,05,02,02,11.40
2011,07,05,02,03,11.40
2011,07,05,02,04,11.40
2011,07,05,02,05,11.40
2011,07,05,02,06,11.40
2011,07,05,02,07,11.40
2011,07,05,02,08,11.40
2011,07,05,02,09,11.40
2011,07,05,02,10,11.40
2011,07,05,02,11,11.40
2011,07,05,02,12,11.40
2011,07,05,02,13,11.40
2011,07,05,02,14,11.30
2011,07,05,02,15,11.30
2011,07,05,02,16,11.20
2011,07,05,02,17,11.20
2011,07,05,02,18,11.20
2011,07,05,02,19,11.10
2011,07,05,02,20,11.10
2011,07,05,02,21,11.10
2011,07,05,02,22,11.10
2011,07,05,02,23,11.00
2011,07,05,02,24,10.90
2011,07,05,02,25,10.90
2011,07,05,02,26,10.90
2011,07,05,02,27,10.90
2011,07,05,02,28,10.80
2011,07,05,02,29,10.80
2011,07,05,02,30,10.80
2011,07,05,02,31,10.80
2011,07,05,02,32,10.80
2011,07,05,02,33,10.70
2011,07,05,02,34,10.70
2011,07,05,02,35,10.70
2011,07,05,02,36,10.70
2011,07,05,02,37,10.70
2011,07,05,02,38,10.60
2011,07,05,02,39,10.60
2011,07,05,02,40,10.60
2011,07,05,02,41,10.60
2011,07,05,02,42,10.60
2011,07,05,02,43,10.60
2011,07,05,02,44,10.60
2011,07,05,02,45,10.60
2011,07,05,02,46,10.60
2011,07,05,02,47,10.60
2011,07,05,02,48,10.60
2011,07,05,02,49,10.60
2011,07,05,02,50,10.60
2011,07,05,02,51,10.60
2011,07,05,02,52,10.40
2011,07,05,02,53,10.40
2011,07,05,02,54,10.40
2011,07,05,02,55,10.40
2011,07,05,02,56,10.40
2011,07,05,02,57,10.40
2011,07,05,02,58,10.40
2011,07,05,02,59,10.40
2011,07,05,03,00,10.40
2011,07,05,03,01,10.40
2011,07,05,03,02,10.40
2011,07,05,03,03,10.40
2011,07,05,03,04,10.40
2011,07,05,03,05,10.40
2011,07,05,03,06,10.30
2011,07,05,03,07,10.30
2011,07,05,03,08,10.30
2011,07,05,03,09,10.20
2011,07,05,03,10,10.20
2011,07,05,03,11,10.20
2011,07,05,03,12,10.20
2011,07,05,03,13,10.10
2011,07,05,03,14,10.10
2011,07,05,03,15,10.10
2011,07,05,03,16,10.10
2011,07,05,03,17,10.10
2011,07,05,03,18,10.10
2011,07,05,03,19,10.10
2011,07,05,03,20,10.10
2011,07,05,03,21,10.10
2011,07,05,03,22,10.10
2011,07,05,03,23,10.10
2011,07,05,03,24,10.10
2011,07,05,03,25,10.10
2011,07,05,03,26,10.10
2011,07,05,03,27,10.10
2011,07,05,03,28,10.00
2011,07,05,03,29,9.90
2011,07,05,03,30,9.90
2011,07,05,03,31,9.90
2011,07,05,03,32,9.90
2011,07,05,03,33,9.90
2011,07,05,03,34,9.90
2011,07,05,03,35,9.90
2011,07,05,03,36,9.90
2011,07,05,03,37,9.90
2011,07,05,03,38,9.80
2011,07,05,03,39,9.80
2011,07,05,03,40,9.80
2011,07,05,03,41,9.80
2011,07,05,03,42,9.80
2011,07,05,03,43,9.70
2011,07,05,03,44,9.70
2011,07,05,03,45,9.70
2011,07,05,03,46,9.70
2011,07,05,03,47,9.70
2011,07,05,03,48,9.70
2011,07,05,03,49,9.70
2011,07,05,03,50,9.70
2011,07,05,03,51,9.70
2011,07,05,03,52,9.70
2011,07,05,03,53,9.70
2011,07,05,03,54,9.70
2011,07,05,03,55,9.70
2011,07,05,03,56,9.70
2011,07,05,03,57,9.70
2011,07,05,03,58,9.70
2011,07,05,03,59,9.70
2011,07,05,04,00,9.70
2011,07,05,04,01,9.70
2011,07,05,04,02,9.70
2011,07,05,04,03,9.70
2011,07,05,04,04,9.70
2011,07,05,04,05,9.70
2011,07,05,04,06,9.60
2011,07,05,04,07,9.60
2011,07,05,04,08,9.60
2011,07,05,04,09,9.60
2011,07,05,04,10,9.60
2011,07,05,04,11,9.60
2011,07,05,04,12,9.60
2011,07,05,04,13,9.60
2011,07,05,04,14,9.60
2011,07,05,04,15,9.60
2011,07,05,04,16,9.60
2011,07,05,04,17,9.60
2011,07,05,04,18,9.60
2011,07,05,04,19,9.60
2011,07,05,04,20,9.60
2011,07,05,04,21,9.60
2011,07,05,04,22,9.50
2011,07,05,04,23,9.50
2011,07,05,04,24,9.50
2011,07,05,04,25,9.50
2011,07,05,04,26,9.50
2011,07,05,04,27,9.40
2011,07,05,04,28,9.40
2011,07,05,04,29,9.40
2011,07,05,04,30,9.30
2011,07,05,04,31,9.30
2011,07,05,04,32,9.30
2011,07,05,04,33,9.30
2011,07,05,04,34,9.30
2011,07,05,04,35,9.30
2011,07,05,04,36,9.30
2011,07,05,04,37,9.30
2011,07,05,04,38,9.20
2011,07,05,04,39,9.20
2011,07,05,04,40,9.20
2011,07,05,04,41,9.20
2011,07,05,04,42,9.20
2011,07,05,04,43,9.20
2011,07,05,04,44,9.20
2011,07,05,04,45,9.20
2011,07,05,04,46,9.20
2011,07,05,04,47,9.20
2011,07,05,04,48,9.20
2011,07,05,04,49,9.20
2011,07,05,04,50,9.20
2011,07,05,04,51,9.20
2011,07,05,04,52,9.20
2011,07,05,04,53,9.20
2011,07,05,04,54,9.20
2011,07,05,04,55,9.20
2011,07,05,04,56,9.20
2011,07,05,04,57,9.20
2011,07,05,04,58,9.20
2011,07,05,04,59,9.20
2011,07,05,05,00,9.20
2011,07,05,05,01,9.20
2011,07,05,05,02,9.20
2011,07,05,05,03,9.20
2011,07,05,05,04,9.10
2011,07,05,05,05,9.10
2011,07,05,05,06,9.00
2011,07,05,05,07,9.00
2011,07,05,05,08,9.00
2011,07,05,05,09,8.90
2011,07,05,05,10,8.90
2011,07,05,05,11,8.90
2011,07,05,05,12,8.90
2011,07,05,05,13,8.90
2011,07,05,05,14,8.90
2011,07,05,05,15,8.90
2011,07,05,05,16,8.90
2011,07,05,05,17,8.90
2011,07,05,05,18,8.90
2011,07,05,05,19,8.90
2011,07,05,05,20,8.90
2011,07,05,05,21,8.90
2011,07,05,05,22,8.90
2011,07,05,05,23,8.90
2011,07,05,05,24,8.90
2011,07,05,05,25,8.90
2011,07,05,05,26,8.90
2011,07,05,05,27,8.90
2011,07,05,05,28,8.90
2011,07,05,05,29,8.90
2011,07,05,05,30,8.90
2011,07,05,05,31,8.90
2011,07,05,05,32,8.90
2011,07,05,05,33,8.90
2011,07,05,05,34,8.90
2011,07,05,05,35,8.90
2011,07,05,05,36,8.90
2011,07,05,05,37,8.90
2011,07,05,05,38,8.90
2011,07,05,05,39,8.90
2011,07,05,05,40,8.90
2011,07,05,05,41,8.90
2011,07,05,05,42,8.90
2011,07,05,05,43,8.90
2011,07,05,05,44,8.90
2011,07,05,05,45,8.90
2011,07,05,05,46,8.90
2011,07,05,05,47,8.90
2011,07,05,05,48,8.90
2011,07,05,05,49,8.90
2011,07,05,05,50,8.90
2011,07,05,05,51,8.90
2011,07,05,05,52,9.00
2011,07,05,05,53,9.00
2011,07,05,05,54,9.00
2011,07,05,05,55,9.00
2011,07,05,05,56,9.00
2011,07,05,05,57,9.00
2011,07,05,05,58,9.00
2011,07,05,05,59,9.00
2011,07,05,06,00,9.00
2011,07,05,06,01,9.00
2011,07,05,06,02,9.00
2011,07,05,06,03,9.00
2011,07,05,06,04,9.00
2011,07,05,06,05,9.10
2011,07,05,06,06,9.10
2011,07,05,06,07,9.20
2011,07,05,06,08,9.20
2011,07,05,06,09,9.20
2011,07,05,06,10,9.20
2011,07,05,06,11,9.30
2011,07,05,06,12,9.30
2011,07,05,06,13,9.40
2011,07,05,06,14,9.40
2011,07,05,06,15,9.50
2011,07,05,06,16,9.50
2011,07,05,06,17,9.50
2011,07,05,06,18,9.60
2011,07,05,06,19,9.60
2011,07,05,06,20,9.70
2011,07,05,06,21,9.70
2011,07,05,06,22,9.80
2011,07,05,06,23,9.90
2011,07,05,06,24,10.00
2011,07,05,06,25,10.10
2011,07,05,06,26,10.20
2011,07,05,06,27,10.30
2011,07,05,06,28,10.40
2011,07,05,06,29,10.50
2011,07,05,06,30,10.60
2011,07,05,06,31,10.70
2011,07,05,06,32,10.80
2011,07,05,06,33,10.90
2011,07,05,06,34,11.00
2011,07,05,06,35,11.10
2011,07,05,06,36,11.20
2011,07,05,06,37,11.20
2011,07,05,06,38,11.30
2011,07,05,06,39,11.30
2011,07,05,06,40,11.30
2011,07,05,06,41,11.30
2011,07,05,06,42,11.30
2011,07,05,06,43,11.30
2011,07,05,06,44,11.30
2011,07,05,06,45,11.40
2011,07,05,06,46,11.40
2011,07,05,06,47,11.40
2011,07,05,06,48,11.40
2011,07,05,06,49,11.60
2011,07,05,06,50,11.60
2011,07,05,06,51,11.60
2011,07,05,06,52,11.70
2011,07,05,06,53,11.80
2011,07,05,06,54,11.90
2011,07,05,06,55,12.00
2011,07,05,06,56,12.10
2011,07,05,06,57,12.20
2011,07,05,06,58,12.30
2011,07,05,06,59,12.50
2011,07,05,07,00,12.50
2011,07,05,07,01,12.60
2011,07,05,07,02,12.70
2011,07,05,07,03,12.70
2011,07,05,07,04,12.70
2011,07,05,07,05,12.80
2011,07,05,07,06,12.80
2011,07,05,07,07,12.80
2011,07,05,07,08,12.80
2011,07,05,07,09,12.80
2011,07,05,07,10,12.90
2011,07,05,07,11,12.90
2011,07,05,07,12,13.00
2011,07,05,07,13,13.00
2011,07,05,07,14,13.10
2011,07,05,07,15,13.10
2011,07,05,07,16,13.20
2011,07,05,07,17,13.20
2011,07,05,07,18,13.30
2011,07,05,07,19,13.40
2011,07,05,07,20,13.50
2011,07,05,07,21,13.60
2011,07,05,07,22,13.70
2011,07,05,07,23,13.80
2011,07,05,07,24,13.90
2011,07,05,07,25,14.00
2011,07,05,07,26,14.10
2011,07,05,07,27,14.20
2011,07,05,07,28,14.30
2011,07,05,07,29,14.40
2011,07,05,07,30,14.40
2011,07,05,07,31,14.40
2011,07,05,07,32,14.50
2011,07,05,07,33,14.50
2011,07,05,07,34,14.60
2011,07,05,07,35,14.50
2011,07,05,07,36,14.50
2011,07,05,07,37,14.50
2011,07,05,07,38,14.50
2011,07,05,07,39,14.50
2011,07,05,07,40,14.50
2011,07,05,07,41,14.50
2011,07,05,07,42,14.50
2011,07,05,07,43,14.40
2011,07,05,07,44,14.40
2011,07,05,07,45,14.40
2011,07,05,07,46,14.50
2011,07,05,07,47,14.50
2011,07,05,07,48,14.50
2011,07,05,07,49,14.50
2011,07,05,07,50,14.50
2011,07,05,07,51,14.50
2011,07,05,07,52,14.50
2011,07,05,07,53,14.50
2011,07,05,07,54,14.50
2011,07,05,07,55,14.60
2011,07,05,07,56,14.60
2011,07,05,07,57,14.60
2011,07,05,07,58,14.60
2011,07,05,07,59,14.60
2011,07,05,08,00,14.60
2011,07,05,08,01,14.60
2011,07,05,08,02,14.60
2011,07,05,08,03,14.70
2011,07,05,08,04,14.70
2011,07,05,08,05,14.70
2011,07,05,08,06,14.80
2011,07,05,08,07,14.80
2011,07,05,08,08,14.90
2011,07,05,08,09,14.90
2011,07,05,08,10,15.00
2011,07,05,08,11,15.00
2011,07,05,08,12,15.10
2011,07,05,08,13,15.20
2011,07,05,08,14,15.30
2011,07,05,08,15,15.40
2011,07,05,08,16,15.50
2011,07,05,08,17,15.50
2011,07,05,08,18,15.60
2011,07,05,08,19,15.60
2011,07,05,08,20,15.70
2011,07,05,08,21,15.70
2011,07,05,08,22,15.80
2011,07,05,08,23,15.80
2011,07,05,08,24,15.80
2011,07,05,08,25,15.90
2011,07,05,08,26,15.90
2011,07,05,08,27,15.80
2011,07,05,08,28,15.80
2011,07,05,08,29,15.90
2011,07,05,08,30,15.90
2011,07,05,08,31,15.80
2011,07,05,08,32,15.80
2011,07,05,08,33,15.80
2011,07,05,08,34,15.70
2011,07,05,08,35,15.60
2011,07,05,08,36,15.50
2011,07,05,08,37,15.50
2011,07,05,08,38,15.40
2011,07,05,08,39,15.30
2011,07,05,08,40,15.30
2011,07,05,08,41,15.30
2011,07,05,08,42,15.30
2011,07,05,08,43,15.30
2011,07,05,08,44,15.30
2011,07,05,08,45,15.20
2011,07,05,08,46,15.20
2011,07,05,08,47,15.20
2011,07,05,08,48,15.20
2011,07,05,08,49,15.20
2011,07,05,08,50,15.20
2011,07,05,08,51,15.30
2011,07,05,08,52,15.30
2011,07,05,08,53,15.30
2011,07,05,08,54,15.30
2011,07,05,08,55,15.30
2011,07,05,08,56,15.30
2011,07,05,08,57,15.30
2011,07,05,08,58,15.30
2011,07,05,08,59,15.30
2011,07,05,09,00,15.30
2011,07,05,09,01,15.30
2011,07,05,09,02,15.30
2011,07,05,09,03,15.30
2011,07,05,09,04,15.30
2011,07,05,09,05,15.30
2011,07,05,09,06,15.30
2011,07,05,09,07,15.30
2011,07,05,09,08,15.40
2011,07,05,09,09,15.40
2011,07,05,09,10,15.50
2011,07,05,09,11,15.50
2011,07,05,09,12,15.60
2011,07,05,09,13,15.60
2011,07,05,09,14,15.70
2011,07,05,09,15,15.80
2011,07,05,09,16,15.80
2011,07,05,09,17,15.90
2011,07,05,09,18,16.10
2011,07,05,09,19,16.10
2011,07,05,09,20,16.20
2011,07,05,09,21,16.30
2011,07,05,09,22,16.30
2011,07,05,09,23,16.40
2011,07,05,09,24,16.50
2011,07,05,09,25,16.60
2011,07,05,09,26,16.70
2011,07,05,09,27,16.70
2011,07,05,09,28,16.70
2011,07,05,09,29,16.70
2011,07,05,09,30,16.70
2011,07,05,09,31,16.70
2011,07,05,09,32,16.70
2011,07,05,09,33,16.70
2011,07,05,09,34,16.70
2011,07,05,09,35,16.70
2011,07,05,09,36,16.70
2011,07,05,09,37,16.70
2011,07,05,09,38,16.60
2011,07,05,09,39,16.60
2011,07,05,09,40,16.60
2011,07,05,09,41,16.70
2011,07,05,09,42,16.70
2011,07,05,09,43,16.70
2011,07,05,09,44,16.70
2011,07,05,09,45,16.70
2011,07,05,09,46,16.70
2011,07,05,09,47,16.80
2011,07,05,09,48,16.90
2011,07,05,09,49,16.90
2011,07,05,09,50,17.00
2011,07,05,09,51,17.00
2011,07,05,09,52,17.00
2011,07,05,09,53,17.00
2011,07,05,09,54,17.00
2011,07,05,09,55,16.90
2011,07,05,09,56,16.90
2011,07,05,09,57,16.90
2011,07,05,09,58,16.90
2011,07,05,09,59,16.90
2011,07,05,10,00,17.00
2011,07,05,10,01,17.00
2011,07,05,10,02,17.00
2011,07,05,10,03,17.00
2011,07,05,10,04,17.10
2011,07,05,10,05,17.20
2011,07,05,10,06,17.10
2011,07,05,10,07,17.00
2011,07,05,10,08,17.00
2011,07,05,10,09,17.00
2011,07,05,10,10,17.00
2011,07,05,10,11,16.90
2011,07,05,10,12,16.80
2011,07,05,10,13,16.80
2011,07,05,10,14,16.80
2011,07,05,10,15,16.90
2011,07,05,10,16,16.90
2011,07,05,10,17,17.00
2011,07,05,10,18,17.00
2011,07,05,10,19,17.10
2011,07,05,10,20,17.20
2011,07,05,10,21,17.30
2011,07,05,10,22,17.30
2011,07,05,10,23,17.30
2011,07,05,10,24,17.30
2011,07,05,10,25,17.40
2011,07,05,10,26,17.40
2011,07,05,10,27,17.50
2011,07,05,10,28,17.50
2011,07,05,10,29,17.40
2011,07,05,10,30,17.40
2011,07,05,10,31,17.40
2011,07,05,10,32,17.50
2011,07,05,10,33,17.50
2011,07,05,10,34,17.50
2011,07,05,10,35,17.50
2011,07,05,10,36,17.50
2011,07,05,10,37,17.60
2011,07,05,10,38,17.60
2011,07,05,10,39,17.60
2011,07,05,10,40,17.60
2011,07,05,10,41,17.50
2011,07,05,10,42,17.50
2011,07,05,10,43,17.60
2011,07,05,10,44,17.60
2011,07,05,10,45,17.70
2011,07,05,10,46,17.70
2011,07,05,10,47,17.80
2011,07,05,10,48,17.90
2011,07,05,10,49,17.90
2011,07,05,10,50,17.90
2011,07,05,10,51,17.90
2011,07,05,10,52,17.90
2011,07,05,10,53,17.90
2011,07,05,10,54,17.90
2011,07,05,10,55,17.80
2011,07,05,10,56,17.90
2011,07,05,10,57,17.90
2011,07,05,10,58,17.90
2011,07,05,10,59,18.00
2011,07,05,11,00,18.10
2011,07,05,11,01,18.20
2011,07,05,11,02,18.20
2011,07,05,11,03,18.40
2011,07,05,11,04,18.50
2011,07,05,11,05,18.60
2011,07,05,11,06,18.70
2011,07,05,11,07,18.70
2011,07,05,11,08,18.80
2011,07,05,11,09,18.90
2011,07,05,11,10,19.00
2011,07,05,11,11,19.10
2011,07,05,11,12,19.10
2011,07,05,11,13,19.20
2011,07,05,11,14,19.20
2011,07,05,11,15,19.30
2011,07,05,11,16,19.20
2011,07,05,11,17,19.20
2011,07,05,11,18,19.10
2011,07,05,11,19,19.10
2011,07,05,11,20,19.10
2011,07,05,11,21,19.00
2011,07,05,11,22,18.90
2011,07,05,11,23,18.90
2011,07,05,11,24,19.00
2011,07,05,11,25,19.10
2011,07,05,11,26,19.10
2011,07,05,11,27,19.10
2011,07,05,11,28,19.10
2011,07,05,11,29,19.10
2011,07,05,11,30,19.10
2011,07,05,11,31,19.10
2011,07,05,11,32,19.10
2011,07,05,11,33,19.10
2011,07,05,11,34,19.10
2011,07,05,11,35,19.10
2011,07,05,11,36,19.10
2011,07,05,11,37,19.10
2011,07,05,11,38,19.10
2011,07,05,11,39,19.10
2011,07,05,11,40,19.20
2011,07,05,11,41,19.20
2011,07,05,11,42,19.20
2011,07,05,11,43,19.10
2011,07,05,11,44,19.10
2011,07,05,11,45,19.10
2011,07,05,11,46,19.10
2011,07,05,11,47,19.10
2011,07,05,11,48,19.10
2011,07,05,11,49,19.00
2011,07,05,11,50,18.90
2011,07,05,11,51,19.00
2011,07,05,11,52,19.10
2011,07,05,11,53,19.10
2011,07,05,11,54,19.20
2011,07,05,11,55,19.20
2011,07,05,11,56,19.20
2011,07,05,11,57,19.10
2011,07,05,11,58,19.10
2011,07,05,11,59,19.20
2011,07,05,12,00,19.30
2011,07,05,12,01,19.40
2011,07,05,12,02,19.50
2011,07,05,12,03,19.60
2011,07,05,12,04,19.70
2011,07,05,12,05,19.80
2011,07,05,12,06,19.80
2011,07,05,12,07,19.90
2011,07,05,12,08,19.90
2011,07,05,12,09,20.00
2011,07,05,12,10,20.10
2011,07,05,12,11,20.10
2011,07,05,12,12,20.10
2011,07,05,12,13,20.10
2011,07,05,12,14,20.10
2011,07,05,12,15,20.00
2011,07,05,12,16,19.90
2011,07,05,12,17,19.90
2011,07,05,12,18,19.90
2011,07,05,12,19,19.90
2011,07,05,12,20,19.90
2011,07,05,12,21,19.90
2011,07,05,12,22,19.90
2011,07,05,12,23,19.90
2011,07,05,12,24,19.90
2011,07,05,12,25,19.90
2011,07,05,12,26,19.90
2011,07,05,12,27,19.90
2011,07,05,12,28,19.80
2011,07,05,12,29,19.80
2011,07,05,12,30,19.80
2011,07,05,12,31,19.90
2011,07,05,12,32,20.00
2011,07,05,12,33,20.10
2011,07,05,12,34,20.20
2011,07,05,12,35,20.40
2011,07,05,12,36,20.60
2011,07,05,12,37,20.80
2011,07,05,12,38,20.80
2011,07,05,12,39,20.80
2011,07,05,12,40,20.80
2011,07,05,12,41,20.80
2011,07,05,12,42,20.90
2011,07,05,12,43,21.00
2011,07,05,12,44,21.10
2011,07,05,12,45,21.20
2011,07,05,12,46,21.20
2011,07,05,12,47,21.30
2011,07,05,12,48,21.30
2011,07,05,12,49,21.50
2011,07,05,12,50,21.60
2011,07,05,12,51,21.60
2011,07,05,12,52,21.80
2011,07,05,12,53,21.90
2011,07,05,12,54,22.10
2011,07,05,12,55,22.20
2011,07,05,12,56,22.30
2011,07,05,12,57,22.30
2011,07,05,12,58,22.30
2011,07,05,12,59,22.40
2011,07,05,13,00,22.40
2011,07,05,13,01,22.50
2011,07,05,13,02,22.40
2011,07,05,13,03,22.20
2011,07,05,13,04,22.20
2011,07,05,13,05,22.10
2011,07,05,13,06,21.90
2011,07,05,13,07,21.90
2011,07,05,13,08,22.00
2011,07,05,13,09,22.00
2011,07,05,13,10,21.90
2011,07,05,13,11,21.90
2011,07,05,13,12,21.80
2011,07,05,13,13,21.70
2011,07,05,13,14,21.60
2011,07,05,13,15,21.40
2011,07,05,13,16,21.40
2011,07,05,13,17,21.30
2011,07,05,13,18,21.30
2011,07,05,13,19,21.30
2011,07,05,13,20,21.30
2011,07,05,13,21,21.30
2011,07,05,13,22,21.40
2011,07,05,13,23,21.50
2011,07,05,13,24,21.50
2011,07,05,13,25,21.40
2011,07,05,13,26,21.50
2011,07,05,13,27,21.60
2011,07,05,13,28,21.50
2011,07,05,13,29,21.50
2011,07,05,13,30,21.60
2011,07,05,13,31,21.70
2011,07,05,13,32,21.80
2011,07,05,13,33,21.90
2011,07,05,13,34,22.00
2011,07,05,13,35,21.90
2011,07,05,13,36,21.70
2011,07,05,13,37,21.80
2011,07,05,13,38,21.90
2011,07,05,13,39,21.90
2011,07,05,13,40,21.90
2011,07,05,13,41,21.90
2011,07,05,13,42,21.90
2011,07,05,13,43,22.00
2011,07,05,13,44,22.00
2011,07,05,13,45,22.10
2011,07,05,13,46,22.20
2011,07,05,13,47,22.20
2011,07,05,13,48,22.20
2011,07,05,13,49,22.30
2011,07,05,13,50,22.40
2011,07,05,13,51,22.40
2011,07,05,13,52,22.40
2011,07,05,13,53,22.50
2011,07,05,13,54,22.60
2011,07,05,13,55,22.80
2011,07,05,13,56,22.70
2011,07,05,13,57,22.70
2011,07,05,13,58,22.70
2011,07,05,13,59,22.70
2011,07,05,14,00,22.60
2011,07,05,14,01,22.40
2011,07,05,14,02,22.30
2011,07,05,14,03,22.40
2011,07,05,14,04,22.50
2011,07,05,14,05,22.60
2011,07,05,14,06,22.70
2011,07,05,14,07,22.70
2011,07,05,14,08,22.60
2011,07,05,14,09,22.50
2011,07,05,14,10,22.40
2011,07,05,14,11,22.40
2011,07,05,14,12,22.40
2011,07,05,14,13,22.40
2011,07,05,14,14,22.40
2011,07,05,14,15,22.50
2011,07,05,14,16,22.60
2011,07,05,14,17,22.70
2011,07,05,14,18,22.70
2011,07,05,14,19,22.80
2011,07,05,14,20,22.90
2011,07,05,14,21,22.90
2011,07,05,14,22,23.00
2011,07,05,14,23,23.10
2011,07,05,14,24,23.20
2011,07,05,14,25,23.30
2011,07,05,14,26,23.30
2011,07,05,14,27,23.30
2011,07,05,14,28,23.30
2011,07,05,14,29,23.40
2011,07,05,14,30,23.40
2011,07,05,14,31,23.40
2011,07,05,14,32,23.30
2011,07,05,14,33,23.40
2011,07,05,14,34,23.50
2011,07,05,14,35,23.60
2011,07,05,14,36,23.60
2011,07,05,14,37,23.60
2011,07,05,14,38,23.60
2011,07,05,14,39,23.70
2011,07,05,14,40,23.70
2011,07,05,14,41,23.70
2011,07,05,14,42,23.70
2011,07,05,14,43,23.70
2011,07,05,14,44,23.70
2011,07,05,14,45,23.70
2011,07,05,14,46,23.70
2011,07,05,14,47,23.70
2011,07,05,14,48,23.70
2011,07,05,14,49,23.70
2011,07,05,14,50,23.70
2011,07,05,14,51,23.60
2011,07,05,14,52,23.40
2011,07,05,14,53,23.50
2011,07,05,14,54,23.70
2011,07,05,14,55,23.70
2011,07,05,14,56,23.70
2011,07,05,14,57,23.70
2011,07,05,14,58,23.70
2011,07,05,14,59,23.70
2011,07,05,15,00,23.70
2011,07,05,15,01,23.70
2011,07,05,15,02,23.60
2011,07,05,15,03,23.40
2011,07,05,15,04,23.30
2011,07,05,15,05,23.40
2011,07,05,15,06,23.40
2011,07,05,15,07,23.40
2011,07,05,15,08,23.40
2011,07,05,15,09,23.30
2011,07,05,15,10,23.30
2011,07,05,15,11,23.40
2011,07,05,15,12,23.60
2011,07,05,15,13,23.70
2011,07,05,15,14,23.70
2011,07,05,15,15,23.70
2011,07,05,15,16,23.70
2011,07,05,15,17,23.80
2011,07,05,15,18,23.70
2011,07,05,15,19,23.70
2011,07,05,15,20,23.60
2011,07,05,15,21,23.50
2011,07,05,15,22,23.40
2011,07,05,15,23,23.40
2011,07,05,15,24,23.40
2011,07,05,15,25,23.50
2011,07,05,15,26,23.60
2011,07,05,15,27,23.80
2011,07,05,15,28,23.90
2011,07,05,15,29,24.10
2011,07,05,15,30,24.00
2011,07,05,15,31,23.90
2011,07,05,15,32,23.90
2011,07,05,15,33,24.00
2011,07,05,15,34,24.10
2011,07,05,15,35,24.10
2011,07,05,15,36,24.10
2011,07,05,15,37,24.10
2011,07,05,15,38,24.10
2011,07,05,15,39,24.10
2011,07,05,15,40,24.10
2011,07,05,15,41,24.10
2011,07,05,15,42,24.10
2011,07,05,15,43,24.10
2011,07,05,15,44,24.10
2011,07,05,15,45,24.10
2011,07,05,15,46,24.20
2011,07,05,15,47,24.30
2011,07,05,15,48,24.30
2011,07,05,15,49,24.40
2011,07,05,15,50,24.30
2011,07,05,15,51,24.30
2011,07,05,15,52,24.30
2011,07,05,15,53,24.30
2011,07,05,15,54,24.30
2011,07,05,15,55,24.30
2011,07,05,15,56,24.30
2011,07,05,15,57,24.30
2011,07,05,15,58,24.20
2011,07,05,15,59,24.20
2011,07,05,16,00,24.10
2011,07,05,16,01,24.10
2011,07,05,16,02,24.10
2011,07,05,16,03,24.00
2011,07,05,16,04,24.10
2011,07,05,16,05,24.10
2011,07,05,16,06,24.10
2011,07,05,16,07,24.00
2011,07,05,16,08,23.80
2011,07,05,16,09,23.80
2011,07,05,16,10,23.80
2011,07,05,16,11,23.90
2011,07,05,16,12,23.90
2011,07,05,16,13,23.90
2011,07,05,16,14,23.80
2011,07,05,16,15,23.90
2011,07,05,16,16,24.00
2011,07,05,16,17,24.00
2011,07,05,16,18,24.10
2011,07,05,16,19,24.30
2011,07,05,16,20,24.30
2011,07,05,16,21,24.20
2011,07,05,16,22,24.20
2011,07,05,16,23,24.10
2011,07,05,16,24,24.00
2011,07,05,16,25,23.90
2011,07,05,16,26,23.90
2011,07,05,16,27,23.90
2011,07,05,16,28,23.80
2011,07,05,16,29,23.80
2011,07,05,16,30,23.80
2011,07,05,16,31,23.90
2011,07,05,16,32,24.00
2011,07,05,16,33,24.10
2011,07,05,16,34,23.90
2011,07,05,16,35,23.80
2011,07,05,16,36,23.80
2011,07,05,16,37,23.80
2011,07,05,16,38,23.90
2011,07,05,16,39,23.90
2011,07,05,16,40,23.70
2011,07,05,16,41,23.70
2011,07,05,16,42,23.70
2011,07,05,16,43,23.70
2011,07,05,16,44,23.70
2011,07,05,16,45,23.90
2011,07,05,16,46,24.00
2011,07,05,16,47,24.20
2011,07,05,16,48,24.30
2011,07,05,16,49,24.30
2011,07,05,16,50,24.20
2011,07,05,16,51,24.20
2011,07,05,16,52,24.10
2011,07,05,16,53,24.10
2011,07,05,16,54,24.10
2011,07,05,16,55,24.20
2011,07,05,16,56,24.20
2011,07,05,16,57,24.30
2011,07,05,16,58,24.30
2011,07,05,16,59,24.20
2011,07,05,17,00,24.10
2011,07,05,17,01,23.90
2011,07,05,17,02,23.80
2011,07,05,17,03,23.70
2011,07,05,17,04,23.70
2011,07,05,17,05,23.70
2011,07,05,17,06,23.70
2011,07,05,17,07,23.70
2011,07,05,17,08,23.70
2011,07,05,17,09,23.70
2011,07,05,17,10,23.80
2011,07,05,17,11,23.90
2011,07,05,17,12,23.90
2011,07,05,17,13,23.90
2011,07,05,17,14,23.90
2011,07,05,17,15,24.00
2011,07,05,17,16,24.10
2011,07,05,17,17,24.30
2011,07,05,17,18,24.40
2011,07,05,17,19,24.40
2011,07,05,17,20,24.40
2011,07,05,17,21,24.30
2011,07,05,17,22,24.20
2011,07,05,17,23,24.10
2011,07,05,17,24,24.10
2011,07,05,17,25,24.10
2011,07,05,17,26,24.10
2011,07,05,17,27,24.10